Weather History for Ionia, MI

Change the Weather History Date:

Wednesday, March 26, 2014

  Actual Average (KGRR) Record (KGRR)
Temperature  
Mean Temperature 20 °F 40 °F  
Max Temperature 31 °F 49 °F 77 °F (1976)
Min Temperature 8 °F 30 °F 6 °F (1996)
Degree Days  
Heating Degree Days 46 26  
Month to date heating degree days 789  
Since 1 July heating degree days 5566  
Cooling Degree Days 0 0  
Month to date cooling degree days 0  
Year to date cooling degree days 0  
Moisture  
Dew Point 11 °F    
Average Humidity 67    
Maximum Humidity 91    
Minimum Humidity 43    
Precipitation  
Precipitation 0.00 in 0.08 in 1.20 in (1948)
Month to date precipitation 1.93  
Year to date precipitation 5.81  
Snow  
Snow 0.00 in 0.20 in 10.20 in (1970)
Month to date snowfall 7.6  
Since 1 July snowfall 72.4  
Snow Depth -    
Sea Level Pressure  
Sea Level Pressure 30.21 in    
Wind  
Wind Speed 5 mph (SSW)    
Max Wind Speed 13 mph    
Max Gust Speed -    
Visibility 10 miles    
Events      
T = Trace of Precipitation, MM = Missing Value Source: NWS Daily Summary

Daily Weather History Graph

Daily Weather History Graph

Search for Another Location

Airport:

Trip Planner

Search our weather history database for the weather conditions in past years. The results will help you decide how hot, cold, wet, or windy it might be!

Date:

Astronomy

Mar. 26, 2014 Rise Set
Actual Time 7:32 AM EDT 7:59 PM EDT
Civil Twilight 7:04 AM EDT 8:28 PM EDT
Nautical Twilight 6:31 AM EDT 9:01 PM EDT
Astronomical Twilight 5:56 AM EDT 9:36 PM EDT
Moon 4:47 AM EDT (3/26) 3:31 PM EDT (3/26)
Length of Visible Light 13h 23m
Length of Day
12h 26m
Waning Crescent, 22% of the Moon is Illuminated
Mar 26
Waning Crescent
Mar 30
New
Apr 7
First Quarter
Apr 15
Full
Apr 22
Last Quarter

Hourly Weather History & Observations

Time (EDT) Temp. Windchill Dew Point Humidity Pressure Visibility Wind Dir Wind Speed Gust Speed Precip Events Conditions
12:14 AM 14.2 °F 6.7 °F 8.6 °F 78% 30.16 in 10.0 mi West 4.6 mph - N/A   Clear
12:34 AM 12.4 °F 3.1 °F 7.9 °F 82% 30.17 in 10.0 mi WSW 5.8 mph - N/A   Clear
12:54 AM 12.2 °F 4.3 °F 8.4 °F 85% 30.17 in 10.0 mi WSW 4.6 mph - N/A   Clear
1:14 AM 12.2 °F 1.7 °F 8.4 °F 85% 30.17 in 10.0 mi WSW 6.9 mph - N/A   Clear
1:34 AM 12.2 °F 4.3 °F 8.4 °F 85% 30.17 in 10.0 mi WSW 4.6 mph - N/A   Scattered Clouds
1:54 AM 11.8 °F 2.5 °F 7.7 °F 83% 30.17 in 10.0 mi WSW 5.8 mph - N/A   Scattered Clouds
2:14 AM 12.6 °F 4.8 °F 8.2 °F 83% 30.18 in 10.0 mi West 4.6 mph - N/A   Scattered Clouds
2:34 AM 12.6 °F - 8.6 °F 84% 30.18 in 10.0 mi Calm Calm - N/A   Scattered Clouds
2:54 AM 10.4 °F - 6.8 °F 85% 30.18 in 10.0 mi Calm Calm - N/A   Clear
3:14 AM 11.1 °F 3.1 °F 7.3 °F 85% 30.19 in 10.0 mi WSW 4.6 mph - N/A   Clear
3:34 AM 11.1 °F 3.1 °F 7.5 °F 85% 30.19 in 10.0 mi West 4.6 mph - N/A   Clear
3:54 AM 11.3 °F - 7.7 °F 85% 30.19 in 10.0 mi Calm Calm - N/A   Clear
4:14 AM 11.3 °F 5.1 °F 8.1 °F 87% 30.20 in 10.0 mi West 3.5 mph - N/A   Scattered Clouds
4:34 AM 11.1 °F 3.1 °F 7.9 °F 87% 30.20 in 10.0 mi West 4.6 mph - N/A   Mostly Cloudy
4:54 AM 11.3 °F 5.1 °F 8.4 °F 88% 30.21 in 10.0 mi West 3.5 mph - N/A   Mostly Cloudy
5:14 AM 11.8 °F 5.7 °F 8.8 °F 88% 30.21 in 10.0 mi WNW 3.5 mph - N/A   Scattered Clouds
5:34 AM 10.8 °F - 8.1 °F 89% 30.22 in 10.0 mi Calm Calm - N/A   Scattered Clouds
5:54 AM 10.8 °F - 8.4 °F 90% 30.23 in 10.0 mi Calm Calm - N/A   Clear
6:14 AM 10.4 °F - 7.7 °F 89% 30.23 in 10.0 mi Calm Calm - N/A   Scattered Clouds
6:34 AM 9.7 °F - 7.5 °F 91% 30.23 in 10.0 mi Calm Calm - N/A   Clear
6:54 AM 9.0 °F - 6.4 °F 89% 30.23 in 10.0 mi Calm Calm - N/A   Clear
7:14 AM 8.6 °F 2.0 °F 5.9 °F 89% 30.24 in 10.0 mi SW 3.5 mph - N/A   Clear
7:34 AM 8.8 °F - 6.1 °F 89% 30.25 in 7.0 mi Calm Calm - N/A   Clear
7:54 AM 8.2 °F - 5.9 °F 90% 30.26 in 7.0 mi Calm Calm - N/A   Clear
8:14 AM 9.1 °F 2.6 °F 6.6 °F 89% 30.27 in 7.0 mi SSW 3.5 mph - N/A   Clear
8:34 AM 11.3 °F 3.3 °F 9.0 °F 90% 30.28 in 7.0 mi SW 4.6 mph - N/A   Clear
8:54 AM 12.7 °F 6.7 °F 10.2 °F 90% 30.29 in 7.0 mi SW 3.5 mph - N/A   Clear
9:14 AM 14.5 °F - 12.2 °F 90% 30.29 in 7.0 mi Calm Calm - N/A   Clear
9:34 AM 15.8 °F 8.6 °F 12.7 °F 88% 30.29 in 10.0 mi SSW 4.6 mph - N/A   Clear
9:54 AM 16.5 °F 8.1 °F 12.9 °F 86% 30.30 in 10.0 mi SSW 5.8 mph - N/A   Clear
10:14 AM 17.8 °F 10.9 °F 12.7 °F 81% 30.30 in 10.0 mi SSW 4.6 mph - N/A   Clear
10:34 AM 19.0 °F 12.3 °F 12.6 °F 76% 30.29 in 10.0 mi South 4.6 mph - N/A   Clear
10:54 AM 20.3 °F 15.4 °F 8.6 °F 61% 30.30 in 10.0 mi SSW 3.5 mph - N/A   Clear
11:14 AM 20.8 °F 13.2 °F 5.9 °F 53% 30.31 in 10.0 mi SSW 5.8 mph - N/A   Clear
11:34 AM 21.6 °F 12.1 °F 5.5 °F 50% 30.31 in 10.0 mi SW 8.1 mph - N/A   Clear
11:54 AM 22.8 °F 14.5 °F 7.0 °F 51% 30.32 in 10.0 mi SW 6.9 mph - N/A   Clear
12:14 PM 23.5 °F 15.4 °F 7.0 °F 49% 30.31 in 10.0 mi SSW 6.9 mph - N/A   Scattered Clouds
12:34 PM 24.4 °F 14.9 °F 8.1 °F 50% 30.30 in 10.0 mi SSW 9.2 mph - N/A   Mostly Cloudy
12:54 PM 24.8 °F 16.9 °F 7.3 °F 48% 30.29 in 10.0 mi SSW 6.9 mph - N/A   Mostly Cloudy
1:14 PM 25.7 °F 18.0 °F 8.4 °F 48% 30.29 in 10.0 mi SW 6.9 mph - N/A   Scattered Clouds
1:34 PM 25.9 °F 19.2 °F 8.2 °F 47% 30.28 in 10.0 mi West 5.8 mph - N/A   Scattered Clouds
1:54 PM 25.3 °F 15.3 °F 8.4 °F 49% 30.27 in 10.0 mi SW 10.4 mph - N/A   Scattered Clouds
2:14 PM 27.0 °F 18.7 °F 8.8 °F 46% 30.27 in 10.0 mi SW 8.1 mph - N/A   Mostly Cloudy
2:34 PM 27.0 °F 19.5 °F 8.4 °F 46% 30.26 in 10.0 mi SSW 6.9 mph - N/A   Scattered Clouds
2:54 PM 27.9 °F 19.1 °F 8.4 °F 44% 30.25 in 10.0 mi South 9.2 mph - N/A   Scattered Clouds
3:14 PM 28.2 °F 24.4 °F 9.0 °F 44% 30.24 in 10.0 mi SSW 3.5 mph - N/A   Scattered Clouds
3:34 PM 28.9 °F 19.8 °F 9.7 °F 45% 30.23 in 10.0 mi SSW 10.4 mph - N/A   Clear
3:54 PM 28.8 °F 20.9 °F 9.1 °F 44% 30.22 in 10.0 mi SSW 8.1 mph - N/A   Clear
4:14 PM 29.5 °F 22.5 °F 10.4 °F 45% 30.21 in 10.0 mi SSW 6.9 mph - N/A   Clear
4:34 PM 30.6 °F 27.1 °F 10.9 °F 44% 30.20 in 10.0 mi SSW 3.5 mph - N/A   Clear
4:54 PM 30.6 °F 23.1 °F 10.6 °F 43% 30.19 in 10.0 mi SSW 8.1 mph - N/A   Clear
5:14 PM 30.2 °F 23.4 °F 10.9 °F 45% 30.19 in 10.0 mi SW 6.9 mph - N/A   Clear
5:34 PM 30.9 °F 23.5 °F 11.5 °F 44% 30.18 in 7.0 mi South 8.1 mph - N/A   Clear
5:54 PM 31.1 °F 23.7 °F 11.1 °F 43% 30.17 in 10.0 mi South 8.1 mph - N/A   Clear
6:14 PM 31.6 °F 23.7 °F 11.3 °F 43% 30.17 in 10.0 mi SW 9.2 mph - N/A   Clear
6:34 PM 31.5 °F 23.5 °F 11.5 °F 44% 30.17 in 10.0 mi SSW 9.2 mph - N/A   Clear
6:54 PM 31.1 °F 23.7 °F 12.6 °F 46% 30.16 in 10.0 mi SSW 8.1 mph - N/A   Clear
7:14 PM 31.1 °F 21.4 °F 12.9 °F 47% 30.16 in 10.0 mi South 12.7 mph - N/A   Clear
7:34 PM 30.2 °F 21.9 °F 13.6 °F 50% 30.16 in 10.0 mi SSW 9.2 mph - N/A   Clear
7:54 PM 29.3 °F 21.5 °F 14.5 °F 54% 30.15 in 10.0 mi SSW 8.1 mph - N/A   Clear
8:14 PM 28.9 °F 22.8 °F 14.9 °F 56% 30.15 in 10.0 mi South 5.8 mph - N/A   Clear
8:34 PM 29.8 °F 22.2 °F 15.4 °F 55% 30.15 in 10.0 mi South 8.1 mph - N/A   Mostly Cloudy
8:54 PM 29.7 °F 22.0 °F 15.8 °F 56% 30.15 in 10.0 mi South 8.1 mph - N/A   Overcast
9:14 PM 29.3 °F 22.3 °F 18.5 °F 64% 30.14 in 10.0 mi South 6.9 mph - N/A   Overcast
9:34 PM 29.3 °F 23.2 °F 18.7 °F 65% 30.14 in 10.0 mi South 5.8 mph - N/A   Overcast
9:54 PM 29.1 °F 20.6 °F 19.8 °F 68% 30.13 in 10.0 mi SSE 9.2 mph - N/A   Overcast
10:14 PM 29.3 °F 20.8 °F 19.8 °F 68% 30.13 in 10.0 mi SSE 9.2 mph - N/A   Overcast
10:34 PM 29.1 °F 20.0 °F 19.8 °F 68% 30.12 in 10.0 mi SSE 10.4 mph - N/A   Overcast
10:54 PM 29.3 °F 20.8 °F 19.6 °F 67% 30.11 in 10.0 mi SSE 9.2 mph - N/A   Overcast
11:14 PM 29.3 °F 20.8 °F 19.4 °F 67% 30.11 in 10.0 mi South 9.2 mph - N/A   Overcast
11:34 PM 28.9 °F 19.8 °F 19.4 °F 68% 30.10 in 10.0 mi SSE 10.4 mph - N/A   Mostly Cloudy
11:54 PM 29.3 °F 20.2 °F 20.1 °F 69% 30.09 in 10.0 mi SSE 10.4 mph - N/A   Overcast